Weather History for Crestview, FL

Change the Weather History Date:

Monday, January 7, 2013

  Actual Average Record
Temperature  
Mean Temperature 50 °F -  
Max Temperature 64 °F 65 °F 81 °F (1982)
Min Temperature 37 °F 45 °F 17 °F (2014)
Degree Days  
Heating Degree Days 14    
Moisture  
Dew Point 37 °F    
Average Humidity 70    
Maximum Humidity 89    
Minimum Humidity 34    
Precipitation  
Precipitation 0.00 in - - ()
Sea Level Pressure  
Sea Level Pressure 30.28 in    
Wind  
Wind Speed 4 mph (NE)    
Max Wind Speed 9 mph    
Max Gust Speed 16 mph    
Visibility 10 miles    
Events      
Averages and records for this station are not official NWS values.
T = Trace of Precipitation, MM = Missing Value Source: NWS Daily Summary

Daily Weather History Graph

Daily Weather History Graph

Search for Another Location

Airport:

Trip Planner

Search our weather history database for the weather conditions in past years. The results will help you decide how hot, cold, wet, or windy it might be!

Date:

Astronomy

Jan. 07, 2013 Rise Set
Actual Time 6:44 AM CST 5:00 PM CST
Civil Twilight 6:18 AM CST 5:26 PM CST
Nautical Twilight 5:48 AM CST 5:56 PM CST
Astronomical Twilight 5:19 AM CST 6:26 PM CST
Moon 2:12 AM CST (1/7) 1:07 PM CST (1/7)
Length of Visible Light 11h 08m
Length of Day
10h 15m
Waning Crescent, 22% of the Moon is Illuminated
Jan 7
Waning Crescent
Jan 11
New
Jan 18
First Quarter
Jan 26
Full
Feb 3
Last Quarter

Hourly Weather History & Observations

Time (CST) Temp. Windchill Dew Point Humidity Pressure Visibility Wind Dir Wind Speed Gust Speed Precip Events Conditions
12:53 AM 44.1 °F 41.5 °F 39.0 °F 82% 30.29 in 10.0 mi NE 4.6 mph - N/A   Clear
1:53 AM 42.1 °F 39.2 °F 37.9 °F 85% 30.28 in 10.0 mi NNE 4.6 mph - N/A   Clear
2:53 AM 41.0 °F 38.0 °F 37.0 °F 86% 30.28 in 10.0 mi North 4.6 mph - N/A   Clear
3:53 AM 41.0 °F 37.1 °F 37.9 °F 89% 30.28 in 10.0 mi North 5.8 mph - N/A   Clear
4:53 AM 41.0 °F 39.0 °F 37.0 °F 86% 30.27 in 10.0 mi North 3.5 mph - N/A   Clear
5:53 AM 39.9 °F 37.8 °F 36.0 °F 86% 30.29 in 10.0 mi NE 3.5 mph - N/A   Clear
6:53 AM 37.9 °F 35.5 °F 35.1 °F 89% 30.30 in 9.0 mi NNE 3.5 mph - N/A   Clear
7:53 AM 42.1 °F 39.2 °F 37.0 °F 82% 30.32 in 10.0 mi NNE 4.6 mph - N/A   Clear
8:53 AM 46.9 °F - 37.9 °F 71% 30.34 in 10.0 mi Variable 5.8 mph - N/A   Clear
9:53 AM 53.1 °F - 36.0 °F 52% 30.34 in 10.0 mi East 8.1 mph 16.1 mph N/A   Clear
10:53 AM 55.9 °F - 35.1 °F 45% 30.31 in 10.0 mi ENE 8.1 mph - N/A   Clear
11:53 AM 59.0 °F - 35.1 °F 41% 30.27 in 10.0 mi NE 9.2 mph - N/A   Clear
1:53 PM 64.0 °F - 35.1 °F 34% 30.24 in 10.0 mi East 8.1 mph - N/A   Scattered Clouds
2:53 PM 62.1 °F - 34.0 °F 35% 30.24 in 10.0 mi ENE 8.1 mph - N/A   Clear
3:53 PM 60.1 °F - 35.1 °F 39% 30.25 in 10.0 mi ENE 4.6 mph - N/A   Clear
5:53 PM 48.0 °F - 37.0 °F 66% 30.27 in 10.0 mi Calm Calm - N/A   Clear
6:53 PM 46.0 °F - 37.9 °F 73% 30.27 in 10.0 mi Calm Calm - N/A   Clear
7:53 PM 42.1 °F - 37.0 °F 82% 30.28 in 10.0 mi Calm Calm - N/A   Clear
8:53 PM 45.0 °F - 39.9 °F 82% 30.28 in 10.0 mi Calm Calm - N/A   Overcast
9:53 PM 42.1 °F - 37.0 °F 82% 30.27 in 10.0 mi Calm Calm - N/A   Clear
10:53 PM 42.1 °F - 37.0 °F 82% 30.24 in 10.0 mi Calm Calm - N/A   Clear
11:53 PM 45.0 °F - 37.9 °F 76% 30.24 in 10.0 mi Calm Calm - N/A   Clear